Weather History for Texarkana, AR

Change the Weather History Date:

Saturday, March 16, 2013

  Actual Average Record
Temperature  
Mean Temperature 69 °F 56 °F  
Max Temperature 81 °F 67 °F 89 °F (1921)
Min Temperature 56 °F 45 °F 27 °F (1901)
Degree Days  
Heating Degree Days 0 10  
Month to date heating degree days 203 184  
Since 1 July heating degree days 2149 2378  
Cooling Degree Days 4 1  
Month to date cooling degree days 5 4  
Year to date cooling degree days 9 8  
Growing Degree Days 18 (Base 50)    
Moisture  
Dew Point 53 °F    
Average Humidity 68    
Maximum Humidity 100    
Minimum Humidity 36    
Precipitation  
Precipitation 0.00 in 0.13 in 0.83 in (1944)
Month to date precipitation 0.91 2.20  
Year to date precipitation 6.36 9.59  
Snow  
Snow 0.00 in - - ()
Month to date snowfall 0.0  
Since 1 July snowfall 2.1  
Snow Depth 0.00 in    
Sea Level Pressure  
Sea Level Pressure 29.86 in    
Wind  
Wind Speed 11 mph (South)    
Max Wind Speed 18 mph    
Max Gust Speed 24 mph    
Visibility 10 miles    
Events      
T = Trace of Precipitation, MM = Missing Value Source: NWS Daily Summary

Daily Weather History Graph

Daily Weather History Graph

Search for Another Location

Airport:

Trip Planner

Search our weather history database for the weather conditions in past years. The results will help you decide how hot, cold, wet, or windy it might be!

Date:

Astronomy

Mar. 16, 2013 Rise Set
Actual Time 7:24 AM CDT 7:24 PM CDT
Civil Twilight 6:59 AM CDT 7:49 PM CDT
Nautical Twilight 6:31 AM CDT 8:18 PM CDT
Astronomical Twilight 6:02 AM CDT 8:47 PM CDT
Moon 10:09 AM CDT (3/16) No Moon Set
Length of Visible Light 12h 49m
Length of Day
12h 00m
Waxing Crescent, 23% of the Moon is Illuminated
Mar 16
Waxing Crescent
Mar 19
First Quarter
Mar 27
Full
Apr 2
Last Quarter
Apr 10
New

Hourly Weather History & Observations

Time (CDT) Temp. Dew Point Humidity Pressure Visibility Wind Dir Wind Speed Gust Speed Precip Events Conditions
12:53 AM 64.0 °F 52.0 °F 65% 29.91 in 10.0 mi South 10.4 mph - N/A   Clear
1:53 AM 63.0 °F 54.0 °F 72% 29.91 in 10.0 mi SSW 10.4 mph - N/A   Clear
2:53 AM 62.1 °F 54.0 °F 75% 29.90 in 10.0 mi SSW 10.4 mph 18.4 mph N/A   Clear
3:53 AM 60.1 °F 54.0 °F 80% 29.89 in 10.0 mi SSW 9.2 mph - N/A   Clear
4:53 AM 59.0 °F 54.0 °F 83% 29.89 in 10.0 mi South 11.5 mph - N/A   Clear
5:53 AM 57.9 °F 54.0 °F 87% 29.90 in 10.0 mi SSW 6.9 mph - N/A   Clear
6:53 AM 57.0 °F 54.0 °F 89% 29.91 in 10.0 mi South 8.1 mph - N/A   Clear
7:53 AM 55.9 °F 55.0 °F 97% 29.92 in 10.0 mi South 6.9 mph - N/A   Clear
8:53 AM 59.0 °F 55.9 °F 90% 29.93 in 10.0 mi South 10.4 mph - N/A   Clear
9:53 AM 63.0 °F 55.9 °F 78% 29.93 in 10.0 mi South 13.8 mph - N/A   Partly Cloudy
10:53 AM 69.1 °F 54.0 °F 58% 29.92 in 10.0 mi SSW 13.8 mph 19.6 mph N/A   Clear
11:53 AM 71.1 °F 52.0 °F 51% 29.91 in 10.0 mi SSW 11.5 mph - N/A   Clear
12:53 PM 73.9 °F 51.1 °F 45% 29.89 in 10.0 mi SSW 13.8 mph 23.0 mph N/A   Clear
1:53 PM 75.9 °F 51.1 °F 42% 29.87 in 10.0 mi South 13.8 mph - N/A   Clear
2:53 PM 79.0 °F 53.1 °F 40% 29.83 in 10.0 mi South 12.7 mph 19.6 mph N/A   Clear
3:53 PM 80.1 °F 52.0 °F 38% 29.79 in 10.0 mi SW 9.2 mph - N/A   Clear
4:53 PM 80.1 °F 51.1 °F 36% 29.77 in 10.0 mi South 12.7 mph 20.7 mph N/A   Clear
5:53 PM 79.0 °F 52.0 °F 39% 29.76 in 10.0 mi South 13.8 mph 20.7 mph N/A   Clear
6:53 PM 75.9 °F 52.0 °F 43% 29.76 in 10.0 mi South 8.1 mph - N/A   Clear
7:53 PM 73.0 °F 52.0 °F 48% 29.78 in 10.0 mi South 6.9 mph - N/A   Clear
8:53 PM 70.0 °F 52.0 °F 53% 29.79 in 10.0 mi SSE 8.1 mph - N/A   Clear
9:53 PM 68.0 °F 53.1 °F 59% 29.79 in 10.0 mi SSE 9.2 mph - N/A   Clear
10:53 PM 68.0 °F 54.0 °F 61% 29.81 in 10.0 mi South 10.4 mph 18.4 mph N/A   Clear
11:53 PM 66.9 °F 55.0 °F 66% 29.81 in 10.0 mi South 12.7 mph 19.6 mph N/A   Clear